Weather History for Ingleside, TX

Change the Weather History Date:

Friday, April 11, 2014

  Actual Average Record
Temperature  
Mean Temperature 74 °F -  
Max Temperature 81 °F - - ()
Min Temperature 67 °F - - ()
Cooling Degree Days 9    
Growing Degree Days 24 (Base 50)    
Moisture  
Dew Point 64 °F    
Average Humidity 72    
Maximum Humidity 92    
Minimum Humidity 51    
Precipitation  
Precipitation 0.00 in - - ()
Sea Level Pressure  
Sea Level Pressure 30.00 in    
Wind  
Wind Speed 14 mph (SSE)    
Max Wind Speed 26 mph    
Max Gust Speed 33 mph    
Visibility 10 miles    
Events      
T = Trace of Precipitation, MM = Missing Value Source: NWS Daily Summary

Daily Weather History Graph

Daily Weather History Graph

Search for Another Location

Airport:

Trip Planner

Search our weather history database for the weather conditions in past years. The results will help you decide how hot, cold, wet, or windy it might be!

Date:

Astronomy

Apr. 11, 2014 Rise Set
Actual Time 7:08 AM CDT 7:51 PM CDT
Civil Twilight 6:44 AM CDT 8:15 PM CDT
Nautical Twilight 6:16 AM CDT 8:43 PM CDT
Astronomical Twilight 5:47 AM CDT 9:12 PM CDT
Moon 4:49 PM CDT (4/11) 4:46 AM CDT (4/11)
Length of Visible Light 13h 31m
Length of Day
12h 43m
Waxing Gibbous, 87% of the Moon is Illuminated
Apr 11
Waxing Gibbous
Apr 15
Full
Apr 22
Last Quarter
Apr 29
New
May 6
First Quarter

Hourly Weather History & Observations

Time (CDT) Temp. Heat Index Dew Point Humidity Pressure Visibility Wind Dir Wind Speed Gust Speed Precip Events Conditions
12:15 AM 69.4 °F - 62.6 °F 79% 30.02 in 10.0 mi South 13.8 mph 21.9 mph N/A   Clear
12:35 AM 69.4 °F - 62.8 °F 79% 30.02 in 10.0 mi South 13.8 mph 20.7 mph N/A   Clear
12:55 AM 69.4 °F - 62.8 °F 79% 30.02 in 10.0 mi South 13.8 mph 18.4 mph N/A   Clear
1:15 AM 69.3 °F - 63.0 °F 80% 30.02 in 10.0 mi South 12.7 mph 20.7 mph N/A   Clear
1:35 AM 69.1 °F - 62.6 °F 80% 30.02 in 10.0 mi South 12.7 mph 19.6 mph N/A   Clear
1:55 AM 69.3 °F - 62.4 °F 79% 30.01 in 10.0 mi South 12.7 mph - N/A   Clear
2:15 AM 69.1 °F - 62.2 °F 79% 30.01 in 10.0 mi South 12.7 mph 19.6 mph N/A   Clear
2:35 AM 69.1 °F - 62.2 °F 79% 30.00 in 10.0 mi South 13.8 mph 18.4 mph N/A   Clear
2:55 AM 68.9 °F - 62.4 °F 80% 30.00 in 10.0 mi South 10.4 mph - N/A   Clear
3:15 AM 68.9 °F - 62.6 °F 80% 30.00 in 10.0 mi South 12.7 mph 18.4 mph N/A   Clear
3:35 AM 68.5 °F - 62.6 °F 81% 30.00 in 10.0 mi South 11.5 mph - N/A   Clear
3:55 AM 68.4 °F - 62.8 °F 82% 29.99 in 10.0 mi SSE 11.5 mph - N/A   Clear
4:15 AM 68.4 °F - 63.0 °F 83% 29.99 in 10.0 mi SSE 11.5 mph 16.1 mph N/A   Clear
4:35 AM 68.4 °F - 63.1 °F 83% 29.99 in 10.0 mi SSE 10.4 mph 16.1 mph N/A   Clear
4:55 AM 68.0 °F - 63.3 °F 85% 29.98 in 10.0 mi SSE 11.5 mph - N/A   Clear
5:15 AM 68.0 °F - 64.0 °F 87% 29.97 in 10.0 mi South 11.5 mph - N/A   Clear
5:35 AM 68.0 °F - 64.4 °F 88% 29.98 in 10.0 mi South 11.5 mph - N/A   Clear
5:55 AM 68.0 °F - 64.6 °F 89% 29.99 in 10.0 mi SSE 10.4 mph - N/A   Clear
6:15 AM 68.0 °F - 64.6 °F 89% 29.99 in 10.0 mi South 8.1 mph - N/A   Clear
6:35 AM 67.6 °F - 64.6 °F 90% 29.99 in 10.0 mi SSE 8.1 mph - N/A   Clear
6:55 AM 67.3 °F - 64.4 °F 90% 29.99 in 10.0 mi SSE 6.9 mph - N/A   Clear
7:15 AM 67.1 °F - 64.6 °F 92% 30.00 in 10.0 mi SSE 8.1 mph - N/A   Clear
7:35 AM 67.3 °F - 64.8 °F 92% 30.01 in 10.0 mi SSE 6.9 mph - N/A   Clear
7:55 AM 68.4 °F - 65.1 °F 89% 30.02 in 10.0 mi SSE 6.9 mph - N/A   Clear
8:15 AM 70.0 °F - 65.5 °F 86% 30.02 in 10.0 mi South 8.1 mph - N/A   Clear
8:35 AM 71.6 °F - 64.6 °F 78% 30.03 in 10.0 mi South 9.2 mph - N/A   Clear
9:15 AM 74.1 °F - 63.3 °F 69% 30.03 in 10.0 mi South 16.1 mph 20.7 mph N/A   Clear
9:35 AM 75.0 °F - 62.6 °F 65% 30.03 in 10.0 mi South 17.3 mph 25.3 mph N/A   Clear
9:55 AM 76.5 °F - 62.6 °F 62% 30.04 in 10.0 mi SSE 17.3 mph 20.7 mph N/A   Clear
10:15 AM 77.0 °F - 62.1 °F 60% 30.05 in 10.0 mi South 16.1 mph 27.6 mph N/A   Clear
10:35 AM 77.9 °F - 62.2 °F 58% 30.05 in 10.0 mi South 16.1 mph 23.0 mph N/A   Clear
10:55 AM 78.4 °F - 62.1 °F 57% 30.05 in 10.0 mi South 16.1 mph 20.7 mph N/A   Clear
11:15 AM 79.0 °F - 62.1 °F 56% 30.05 in 10.0 mi SSE 18.4 mph 23.0 mph N/A   Scattered Clouds
11:35 AM 79.5 °F - 62.1 °F 55% 30.06 in 10.0 mi SSE 17.3 mph 25.3 mph N/A   Scattered Clouds
11:55 AM 80.2 °F 81.3 °F 61.5 °F 53% 30.05 in 10.0 mi SSE 17.3 mph 23.0 mph N/A   Clear
12:15 PM 80.4 °F 81.4 °F 61.2 °F 52% 30.05 in 10.0 mi SSE 18.4 mph 26.5 mph N/A   Scattered Clouds
12:35 PM 80.8 °F 81.6 °F 61.2 °F 51% 30.04 in 10.0 mi SE 20.7 mph 26.5 mph N/A   Scattered Clouds
12:55 PM 81.0 °F 81.8 °F 61.3 °F 51% 30.03 in 10.0 mi SSE 18.4 mph 27.6 mph N/A   Clear
1:15 PM 81.0 °F 81.8 °F 61.2 °F 51% 30.02 in 10.0 mi SSE 18.4 mph 28.8 mph N/A   Clear
1:35 PM 81.3 °F 82.2 °F 61.7 °F 51% 30.01 in 10.0 mi South 18.4 mph 28.8 mph N/A   Clear
1:55 PM 81.1 °F 82.0 °F 61.7 °F 51% 30.01 in 10.0 mi SE 19.6 mph 27.6 mph N/A   Clear
2:15 PM 81.3 °F 82.3 °F 61.9 °F 52% 30.00 in 10.0 mi SE 17.3 mph 26.5 mph N/A   Clear
2:35 PM 81.5 °F 82.5 °F 62.1 °F 52% 30.00 in 10.0 mi SE 20.7 mph 29.9 mph N/A   Clear
2:55 PM 81.5 °F 82.5 °F 62.2 °F 52% 29.99 in 10.0 mi SE 20.7 mph 26.5 mph N/A   Clear
3:15 PM 81.3 °F 82.3 °F 62.2 °F 52% 29.99 in 10.0 mi SE 20.7 mph 27.6 mph N/A   Clear
3:35 PM 80.6 °F 81.7 °F 62.2 °F 53% 29.98 in 10.0 mi SE 23.0 mph 31.1 mph N/A   Clear
3:55 PM 80.6 °F 81.7 °F 62.2 °F 53% 29.97 in 10.0 mi SSE 24.2 mph 29.9 mph N/A   Clear
4:15 PM 80.2 °F 81.5 °F 62.8 °F 55% 29.96 in 10.0 mi SE 19.6 mph 29.9 mph N/A   Clear
4:35 PM 79.9 °F - 63.3 °F 57% 29.95 in 10.0 mi SE 26.5 mph - N/A   Clear
4:55 PM 79.3 °F - 63.7 °F 59% 29.95 in 10.0 mi SE 21.9 mph 29.9 mph N/A   Clear
5:15 PM 78.1 °F - 63.7 °F 61% 29.95 in 10.0 mi SE 21.9 mph 29.9 mph N/A   Clear
5:35 PM 78.4 °F - 63.7 °F 60% 29.94 in 10.0 mi SE 20.7 mph 29.9 mph N/A   Clear
5:55 PM 78.3 °F - 63.7 °F 61% 29.94 in 10.0 mi SE 24.2 mph 33.4 mph N/A   Clear
6:15 PM 77.5 °F - 63.5 °F 62% 29.94 in 10.0 mi SE 25.3 mph 29.9 mph N/A   Clear
6:35 PM 76.3 °F - 63.5 °F 64% 29.95 in 10.0 mi SE 18.4 mph 27.6 mph N/A   Clear
6:55 PM 75.0 °F - 64.0 °F 69% 29.95 in 10.0 mi SE 21.9 mph 26.5 mph N/A   Clear
7:15 PM 74.5 °F - 64.6 °F 71% 29.95 in 10.0 mi SE 17.3 mph 27.6 mph N/A   Clear
7:35 PM 73.4 °F - 64.8 °F 74% 29.96 in 10.0 mi SE 19.6 mph - N/A   Clear
7:55 PM 72.7 °F - 64.9 °F 77% 29.96 in 10.0 mi SE 19.6 mph - N/A   Clear
8:15 PM 72.5 °F - 65.3 °F 78% 29.97 in 10.0 mi SE 20.7 mph 24.2 mph N/A   Clear
8:35 PM 72.3 °F - 65.5 °F 79% 29.96 in 10.0 mi SE 21.9 mph 26.5 mph N/A   Clear
8:55 PM 72.0 °F - 65.5 °F 80% 29.98 in 10.0 mi SSE 16.1 mph 23.0 mph N/A   Clear
9:15 PM 71.6 °F - 65.7 °F 81% 29.99 in 10.0 mi SE 16.1 mph 20.7 mph N/A   Clear
9:35 PM 71.8 °F - 65.7 °F 81% 29.99 in 10.0 mi SE 12.7 mph 20.7 mph N/A   Clear
9:55 PM 71.2 °F - 65.7 °F 82% 30.00 in 10.0 mi SE 12.7 mph 16.1 mph N/A   Clear
10:15 PM 71.2 °F - 65.8 °F 83% 30.00 in 10.0 mi SSE 13.8 mph - N/A   Scattered Clouds
10:35 PM 71.6 °F - 66.2 °F 83% 30.00 in 10.0 mi SSE 11.5 mph - N/A   Mostly Cloudy
10:55 PM 71.6 °F - 66.2 °F 83% 30.01 in 10.0 mi SSE 12.7 mph - N/A   Mostly Cloudy
11:15 PM 71.4 °F - 66.4 °F 84% 30.00 in 10.0 mi SSE 11.5 mph - N/A   Mostly Cloudy
11:35 PM 71.6 °F - 66.7 °F 85% 30.00 in 10.0 mi SSE 11.5 mph - N/A   Mostly Cloudy
11:55 PM 71.8 °F - 67.1 °F 85% 30.00 in 10.0 mi SE 11.5 mph - N/A   Mostly Cloudy